"Datum/tijd (MEZT)";"SWAN sign golfverwachting";"SWAN gem. richting sign golf";"SWAN swell verwachting";"SWAN sign. golfperiode [0.1s]";"golfhoogte";"deininghoogte"
2024-04-16 13:00;215;336;41;65;212;31
2024-04-16 13:10;214;337;41;65;203;34
2024-04-16 13:20;213;337;41;65;202;32
2024-04-16 13:30;212;338;40;65;212;30
2024-04-16 13:40;210;339;40;65;213;32
2024-04-16 13:50;209;339;40;65;205;33
2024-04-16 14:00;208;339;40;65;220;32
2024-04-16 14:10;207;340;40;65;223;33
2024-04-16 14:20;206;340;40;65;205;33
2024-04-16 14:30;204;341;40;64;211;32
2024-04-16 14:40;203;342;39;64;216;31
2024-04-16 14:50;202;342;39;64;197;33
2024-04-16 15:00;201;343;39;64;208;35
2024-04-16 15:10;200;343;39;64;210;34
2024-04-16 15:20;199;344;39;64;193;31
2024-04-16 15:30;198;344;38;64;189;32
2024-04-16 15:40;198;344;38;63;187;30
2024-04-16 15:50;197;345;38;63;193;33
2024-04-16 16:00;196;345;38;63;188;36
2024-04-16 16:10;196;345;38;63;177;34
2024-04-16 16:20;195;346;38;63;185;35
2024-04-16 16:30;195;346;38;62;200;36
2024-04-16 16:40;195;346;38;62;187;35
2024-04-16 16:50;194;347;38;62;177;32
2024-04-16 17:00;193;347;37;62;192;33
2024-04-16 17:10;192;347;37;62;200;34
2024-04-16 17:20;192;348;37;62;206;32
2024-04-16 17:30;191;348;37;62;209;34
2024-04-16 17:40;190;348;37;62;193;35
2024-04-16 17:50;190;349;37;62;180;33
2024-04-16 18:00;189;349;37;62;181;32
2024-04-16 18:10;188;349;37;62;188;32
2024-04-16 18:20;187;349;37;62;180;34
2024-04-16 18:30;186;350;36;62;171;33
2024-04-16 18:40;186;350;36;62;178;31
2024-04-16 18:50;185;350;36;62;178;35
2024-04-16 19:00;184;350;36;62;178;36
2024-04-16 19:10;183;350;36;62;167;37
2024-04-16 19:20;183;350;36;62;154;36
2024-04-16 19:30;182;350;36;62;172;33
2024-04-16 19:40;181;350;36;61;178;35
2024-04-16 19:50;181;350;36;61;167;34
2024-04-16 20:00;180;350;36;61;174;31
2024-04-16 20:10;179;350;36;61;173;36
2024-04-16 20:20;178;350;36;61;171;36
2024-04-16 20:30;178;350;36;61;171;33
2024-04-16 20:40;177;350;35;61;168;32
2024-04-16 20:50;176;350;35;61;177;32
2024-04-16 21:00;175;350;35;61;186;31
2024-04-16 21:10;174;350;35;61;188;31
2024-04-16 21:20;174;350;35;61;182;30
2024-04-16 21:30;174;350;34;61;192;33
2024-04-16 21:40;173;349;34;61;188;32
2024-04-16 21:50;172;349;34;61;186;31
2024-04-16 22:00;172;349;34;61;191;30
2024-04-16 22:10;171;349;34;61;173;30
2024-04-16 22:20;171;349;34;61;162;31
2024-04-16 22:30;170;348;34;61;171;32
2024-04-16 22:40;169;348;33;61;178;32
2024-04-16 22:50;169;348;33;61;159;29
2024-04-16 23:00;168;348;33;61;152;33
2024-04-16 23:10;168;348;33;61;164;33
2024-04-16 23:20;167;348;33;61;164;28
2024-04-16 23:30;166;348;32;61;169;29
2024-04-16 23:40;166;347;32;61;172;29
2024-04-16 23:50;166;347;32;61;159;27
2024-04-17 00:00;165;347;32;61;158;28
2024-04-17 00:10;165;347;32;61;171;32
2024-04-17 00:20;164;346;32;61;150;30
2024-04-17 00:30;164;346;32;61;136;29
2024-04-17 00:40;164;346;31;61;142;28
2024-04-17 00:50;163;345;31;61;146;25
2024-04-17 01:00;163;345;31;61;160;27
2024-04-17 01:10;163;345;31;61;157;27
2024-04-17 01:20;163;345;31;61;153;28
2024-04-17 01:30;164;344;30;60;147;27
2024-04-17 01:40;164;344;30;60;148;26
2024-04-17 01:50;164;344;30;60;150;27
2024-04-17 02:00;164;344;30;60;150;28
2024-04-17 02:10;164;344;30;60;146;26
2024-04-17 02:20;164;343;29;60;138;25
2024-04-17 02:30;164;343;29;60;157;25
2024-04-17 02:40;163;343;29;60;156;26
2024-04-17 02:50;163;342;28;60;151;25
2024-04-17 03:00;163;342;28;60;164;24
2024-04-17 03:10;163;342;28;60;164;30
2024-04-17 03:20;162;341;28;60;154;30
2024-04-17 03:30;162;341;28;60;157;25
2024-04-17 03:40;162;341;27;60;165;25
2024-04-17 03:50;161;340;27;60;168;26
2024-04-17 04:00;161;340;27;60;168;27
2024-04-17 04:10;160;340;27;60;167;27
2024-04-17 04:20;160;339;27;60;156;27
2024-04-17 04:30;159;339;26;60;156;27
2024-04-17 04:40;158;339;26;60;160;26
2024-04-17 04:50;158;338;26;60;147;24
2024-04-17 05:00;157;338;26;60;150;26
2024-04-17 05:10;156;338;26;60;151;26
2024-04-17 05:20;156;337;26;60;149;25
2024-04-17 05:30;156;337;26;60;155;25
2024-04-17 05:40;155;337;25;60;161;24
2024-04-17 05:50;154;336;25;60;163;27
2024-04-17 06:00;154;336;25;60;165;28
2024-04-17 06:10;154;336;25;60;164;26
2024-04-17 06:20;153;336;25;60;151;24
2024-04-17 06:30;152;336;24;60;157;21
2024-04-17 06:40;152;335;24;60;164;23
2024-04-17 06:50;152;335;24;60;160;25
2024-04-17 07:00;151;335;24;60;147;27
2024-04-17 07:10;150;335;24;60;150;28
2024-04-17 07:20;150;335;24;60;159;27
2024-04-17 07:30;150;334;24;60;160;24
2024-04-17 07:40;149;334;23;60;161;21
2024-04-17 07:50;148;334;23;60;161;25
2024-04-17 08:00;151;334;27;62;146;27
2024-04-17 08:10;151;334;27;62;150;29
2024-04-17 08:20;150;334;27;62;163;28
2024-04-17 08:30;150;334;27;62;161;26
2024-04-17 08:40;150;333;27;62;155;25
2024-04-17 08:50;149;333;27;62;159;26
2024-04-17 09:00;149;333;27;62;158;26
2024-04-17 09:10;149;333;27;62;154;26
2024-04-17 09:20;148;333;27;62;154;24
2024-04-17 09:30;148;332;26;62;152;22
2024-04-17 09:40;148;332;26;62;144;23
2024-04-17 09:50;147;332;26;62;141;22
2024-04-17 10:00;147;332;26;62;147;22
2024-04-17 10:10;146;332;26;62;153;26
2024-04-17 10:20;146;332;25;62;149;28
2024-04-17 10:30;146;332;25;62;140;25
2024-04-17 10:40;145;332;25;61;134;24
2024-04-17 10:50;144;332;24;61;139;24
2024-04-17 11:00;144;332;24;61;141;25
2024-04-17 11:10;144;332;24;61;134;27
2024-04-17 11:20;143;332;24;61;140;26
2024-04-17 11:30;143;332;24;61;141;25
2024-04-17 11:40;143;332;23;61;145;26
2024-04-17 11:50;142;332;23;61;138;30
2024-04-17 12:00;142;332;23;61;129;27
2024-04-17 12:10;142;332;23;61;135;23
2024-04-17 12:20;141;332;23;61;144;25
2024-04-17 12:30;140;332;22;60;146;26
2024-04-17 12:40;140;332;22;60;135;26
2024-04-17 12:50;140;332;22;60;133;24
2024-04-17 13:00;139;332;22;60;137;26
2024-04-17 13:10;138;332;22;60;141;28
2024-04-17 13:20;138;332;22;60;137;27
2024-04-17 13:30;137;332;22;60;136;26
2024-04-17 13:40;136;333;21;60;141;28
2024-04-17 13:50;136;333;21;60;137;30
2024-04-17 14:00;135;333;21;60;136;28
2024-04-17 14:10;134;333;21;60;144;24
2024-04-17 14:20;134;333;21;60;140;27
2024-04-17 14:30;133;333;21;60;132;28
2024-04-17 14:40;132;333;21;60;128;27
2024-04-17 14:50;132;333;21;60;130;28
2024-04-17 15:00;131;333;21;60;128;29
2024-04-17 15:10;130;333;21;60;121;29
2024-04-17 15:20;130;333;21;60;125;27
2024-04-17 15:30;130;333;22;60;125;25
2024-04-17 15:40;129;333;22;60;118;28
2024-04-17 15:50;128;333;22;60;116;29
2024-04-17 16:00;128;333;22;60;115;28
2024-04-17 16:10;128;333;22;60;117;26
2024-04-17 16:20;127;333;22;60;116;26
2024-04-17 16:30;126;333;22;60;114;25
2024-04-17 16:40;126;333;23;60;115;26
2024-04-17 16:50;126;333;23;60;116;26
2024-04-17 17:00;125;333;23;60;112;25
2024-04-17 17:10;124;333;23;60;114;25
2024-04-17 17:20;124;333;23;60;119;28
2024-04-17 17:30;124;332;24;60;128;30
2024-04-17 17:40;123;332;24;61;121;29
2024-04-17 17:50;122;332;24;61;106;28
2024-04-17 18:00;122;332;24;61;108;33
2024-04-17 18:10;122;332;24;61;111;35
2024-04-17 18:20;122;332;25;61;111;33
2024-04-17 18:30;122;332;25;62;;
2024-04-17 18:40;121;331;25;62;114;32
2024-04-17 18:50;121;331;26;62;110;32
2024-04-17 19:00;121;331;26;62;111;35
2024-04-17 19:10;121;331;26;62;119;40
2024-04-17 19:20;121;331;27;62;113;38
2024-04-17 19:30;120;330;27;62;106;36
2024-04-17 19:40;120;330;27;63;113;37
2024-04-17 19:50;120;330;28;63;106;36
2024-04-17 20:00;122;330;31;64;103;34
2024-04-17 20:10;122;330;31;64;112;40
2024-04-17 20:20;122;330;32;65;114;41
2024-04-17 20:30;122;330;32;65;115;38
2024-04-17 20:40;123;329;32;65;113;39
2024-04-17 20:50;123;329;33;66;112;42
2024-04-17 21:00;123;329;33;66;117;44
2024-04-17 21:10;123;329;33;66;114;43
2024-04-17 21:20;123;329;33;66;118;44
2024-04-17 21:30;124;328;34;66;122;44
2024-04-17 21:40;124;328;34;66;125;40
2024-04-17 21:50;124;328;34;66;127;40
2024-04-17 22:00;124;328;34;66;120;41
2024-04-17 22:10;124;328;34;66;111;39
2024-04-17 22:20;124;328;34;66;118;46
2024-04-17 22:30;124;328;34;66;120;46
2024-04-17 22:40;124;327;35;67;114;40
2024-04-17 22:50;124;327;35;67;120;48
2024-04-17 23:00;125;327;35;67;123;51
2024-04-17 23:10;125;327;35;67;120;47
2024-04-17 23:20;125;327;35;67;125;48
2024-04-17 23:30;126;327;35;66;128;44
2024-04-17 23:40;126;327;35;66;130;48
2024-04-17 23:50;126;327;35;66;137;47
2024-04-18 00:00;126;327;35;66;143;40
2024-04-18 00:10;126;327;35;66;143;44
2024-04-18 00:20;126;327;35;66;135;48
2024-04-18 00:30;126;327;35;66;129;48
2024-04-18 00:40;126;327;35;66;127;44
2024-04-18 00:50;126;327;35;66;136;43
2024-04-18 01:00;126;327;35;66;139;45
2024-04-18 01:10;126;327;35;66;135;46
2024-04-18 01:20;126;327;35;66;134;47
2024-04-18 01:30;126;328;34;66;132;45
2024-04-18 01:40;127;328;34;65;128;42
2024-04-18 01:50;127;328;34;65;131;44
2024-04-18 02:00;127;328;34;65;136;45
2024-04-18 02:10;127;328;34;65;133;48
2024-04-18 02:20;127;328;34;65;131;46
2024-04-18 02:30;126;328;34;64;126;36
2024-04-18 02:40;126;329;33;64;122;36
2024-04-18 02:50;126;329;33;64;121;40
2024-04-18 03:00;126;329;33;64;122;41
2024-04-18 03:10;126;329;33;64;122;39
2024-04-18 03:20;126;329;32;64;122;36
2024-04-18 03:30;126;330;32;64;120;32
2024-04-18 03:40;125;330;32;63;116;35
2024-04-18 03:50;125;330;31;63;125;35
2024-04-18 04:00;125;330;31;63;121;31
2024-04-18 04:10;125;330;31;63;108;31
2024-04-18 04:20;125;330;30;62;114;31
2024-04-18 04:30;124;330;30;62;125;31
2024-04-18 04:40;124;331;30;62;120;30
2024-04-18 04:50;124;331;29;61;115;29
2024-04-18 05:00;124;331;29;61;112;31
2024-04-18 05:10;124;331;29;61;112;36
2024-04-18 05:20;123;331;28;61;110;36
2024-04-18 05:30;122;331;28;61;104;27
2024-04-18 05:40;122;331;28;61;107;27
2024-04-18 05:50;122;331;27;61;109;29
2024-04-18 06:00;121;331;27;61;98;31
2024-04-18 06:10;121;331;27;61;98;30
2024-04-18 06:20;121;331;27;61;102;27
2024-04-18 06:30;120;332;26;60;105;26
2024-04-18 06:40;120;332;26;60;108;30
2024-04-18 06:50;120;332;26;60;107;34
2024-04-18 07:00;120;332;26;60;110;31
2024-04-18 07:10;120;332;26;60;111;32
2024-04-18 07:20;120;332;25;59;109;31
2024-04-18 07:30;120;332;25;59;104;27
2024-04-18 07:40;120;332;25;59;109;25
2024-04-18 07:50;120;332;24;58;116;25
2024-04-18 08:00;120;332;26;59;110;26
2024-04-18 08:10;120;332;26;59;106;27
2024-04-18 08:20;120;332;25;59;104;26
2024-04-18 08:30;120;332;25;58;103;31
2024-04-18 08:40;121;332;25;58;108;31
2024-04-18 08:50;121;332;24;58;106;28
2024-04-18 09:00;121;332;24;58;103;29
2024-04-18 09:10;121;332;24;58;101;28
2024-04-18 09:20;121;332;24;58;102;26
2024-04-18 09:30;121;332;24;58;109;21
2024-04-18 09:40;121;332;23;58;113;24
2024-04-18 09:50;121;332;23;58;112;28
2024-04-18 10:00;121;332;23;58;107;27
2024-04-18 10:10;121;332;23;58;105;27
2024-04-18 10:20;121;332;23;58;107;26
2024-04-18 10:30;121;332;22;58;111;26
2024-04-18 10:40;121;332;22;57;117;26
2024-04-18 10:50;121;332;22;57;117;25
2024-04-18 11:00;121;332;22;57;113;23
2024-04-18 11:10;121;332;22;57;110;22
2024-04-18 11:20;121;332;22;57;112;28
2024-04-18 11:30;120;332;22;57;115;33
2024-04-18 11:40;120;333;21;57;115;31
2024-04-18 11:50;120;333;21;57;111;28
2024-04-18 12:00;120;333;21;57;114;26
2024-04-18 12:10;120;333;21;57;122;29
2024-04-18 12:20;120;333;21;57;117;29
2024-04-18 12:30;120;333;20;57;110;25
2024-04-18 12:40;121;333;20;57;112;24
2024-04-18 12:50;121;333;20;57;116;24
2024-04-18 13:00;121;333;20;57;116;24
2024-04-18 13:10;121;333;20;57;113;25
2024-04-18 13:20;121;333;20;57;116;25
2024-04-18 13:30;122;333;20;57;115;23
2024-04-18 13:40;122;333;19;57;115;22
2024-04-18 13:50;122;333;19;57;115;23
2024-04-18 14:00;122;334;19;57;111;26
2024-04-18 14:10;122;334;19;57;114;26
2024-04-18 14:20;122;334;19;57;117;24
2024-04-18 14:30;122;334;19;57;116;26
2024-04-18 14:40;122;335;19;57;113;24
2024-04-18 14:50;122;335;19;57;108;23
2024-04-18 15:00;122;335;19;57;109;24
2024-04-18 15:10;122;335;19;57;114;25
2024-04-18 15:20;122;335;19;57;110;24
2024-04-18 15:30;122;335;18;57;115;25
2024-04-18 15:40;123;335;18;57;120;27
2024-04-18 15:50;123;335;18;57;115;28
2024-04-18 16:00;123;335;18;57;113;26
2024-04-18 16:10;123;335;18;57;111;23
2024-04-18 16:20;123;335;18;57;107;24
2024-04-18 16:30;123;335;18;57;106;24
2024-04-18 16:40;123;335;18;57;110;21
2024-04-18 16:50;123;335;18;57;111;23
2024-04-18 17:00;123;334;18;57;110;23
2024-04-18 17:10;123;334;18;57;111;23
2024-04-18 17:20;124;334;18;57;107;24
2024-04-18 17:30;124;334;18;57;107;23
2024-04-18 17:40;124;333;18;57;107;26
2024-04-18 17:50;125;333;18;57;111;26
2024-04-18 18:00;125;333;18;57;109;21
2024-04-18 18:10;126;332;18;57;108;23
2024-04-18 18:20;127;331;18;56;113;26
2024-04-18 18:30;128;330;18;56;110;26
2024-04-18 18:40;128;328;18;56;111;24
2024-04-18 18:50;129;327;18;55;111;22
2024-04-18 19:00;130;326;18;55;110;27
2024-04-18 19:10;131;325;18;55;110;28
2024-04-18 19:20;133;323;18;55;110;25
2024-04-18 19:30;134;322;18;54;110;22
2024-04-18 19:40;135;321;17;54;113;21
2024-04-18 19:50;137;319;17;54;120;24
2024-04-18 20:00;136;320;17;55;121;24
2024-04-18 20:10;137;318;17;55;119;25
2024-04-18 20:20;139;317;17;55;120;25
2024-04-18 20:30;140;315;17;55;122;22
2024-04-18 20:40;141;313;17;55;128;22
2024-04-18 20:50;143;312;17;55;126;24
2024-04-18 21:00;144;310;17;55;128;24
2024-04-18 21:10;147;308;17;55;134;26
2024-04-18 21:20;149;306;17;55;134;26
2024-04-18 21:30;152;304;16;55;133;26
2024-04-18 21:40;155;303;16;55;132;28
2024-04-18 21:50;157;301;16;55;145;27
2024-04-18 22:00;160;299;16;55;148;26
2024-04-18 22:10;164;296;16;55;141;23
2024-04-18 22:20;168;294;16;55;145;26
2024-04-18 22:30;172;291;16;56;156;29
2024-04-18 22:40;175;288;16;56;160;25
2024-04-18 22:50;179;286;16;56;159;21
2024-04-18 23:00;180;284;15;56;160;21
2024-04-18 23:10;185;283;15;56;158;22
2024-04-18 23:20;190;281;15;57;183;24
2024-04-18 23:30;196;280;15;57;184;24
2024-04-18 23:40;201;279;15;57;165;24
2024-04-18 23:50;206;277;15;58;164;22
2024-04-19 00:00;211;276;15;58;165;20
2024-04-19 00:10;211;276;15;58;178;20
2024-04-19 00:20;211;275;15;58;201;21
2024-04-19 00:30;211;275;14;58;201;22
2024-04-19 00:40;211;275;14;59;201;23
2024-04-19 00:50;211;274;14;59;210;21
2024-04-19 01:00;211;274;14;59;204;23
2024-04-19 01:10;212;274;14;59;225;25
2024-04-19 01:20;214;274;14;59;234;25
2024-04-19 01:30;216;274;14;58;225;23
2024-04-19 01:40;217;273;14;58;221;21
2024-04-19 01:50;218;273;14;58;237;21
2024-04-19 02:00;216;273;13;58;234;21
2024-04-19 02:10;215;273;13;58;224;21
2024-04-19 02:20;215;274;13;58;228;22
2024-04-19 02:30;214;274;12;58;233;24
2024-04-19 02:40;213;274;12;58;238;25
2024-04-19 02:50;213;275;12;58;229;25
2024-04-19 03:00;212;275;12;58;232;24
2024-04-19 03:10;210;276;12;58;242;24
2024-04-19 03:20;208;276;12;58;271;25
2024-04-19 03:30;206;276;12;58;272;23
2024-04-19 03:40;204;277;11;58;239;21
2024-04-19 03:50;202;278;11;58;233;22
2024-04-19 04:00;200;278;11;58;219;23
2024-04-19 04:10;198;278;11;58;214;22
2024-04-19 04:20;197;279;11;58;219;22
2024-04-19 04:30;195;280;10;58;215;20
2024-04-19 04:40;193;280;10;58;209;18
2024-04-19 04:50;192;280;10;58;216;19
2024-04-19 05:00;190;281;10;58;230;20
2024-04-19 05:10;189;282;10;58;212;20
2024-04-19 05:20;188;283;10;58;209;19
2024-04-19 05:30;186;284;10;58;215;20
2024-04-19 05:40;185;284;9;58;218;21
2024-04-19 05:50;184;285;9;58;225;20
2024-04-19 06:00;183;286;9;58;217;19
2024-04-19 06:10;182;287;9;58;206;22
2024-04-19 06:20;181;287;9;58;212;21
2024-04-19 06:30;180;288;8;58;219;18
2024-04-19 06:40;180;289;8;58;223;17
2024-04-19 06:50;179;289;8;58;216;21
2024-04-19 07:00;178;290;8;58;203;21
2024-04-19 07:10;178;291;8;58;195;19
2024-04-19 07:20;177;291;8;58;188;18
2024-04-19 07:30;177;292;8;58;192;19
2024-04-19 07:40;177;293;8;59;207;20
2024-04-19 07:50;176;293;8;59;195;19
2024-04-19 08:00;176;294;8;59;178;18
2024-04-19 08:10;177;295;8;59;188;19
2024-04-19 08:20;177;296;8;59;193;20
2024-04-19 08:30;178;296;8;59;193;20
2024-04-19 08:40;179;297;9;59;198;20
2024-04-19 08:50;179;298;9;59;200;20
2024-04-19 09:00;180;299;9;59;188;19
2024-04-19 09:10;181;300;9;59;180;18
2024-04-19 09:20;181;301;9;59;185;18
2024-04-19 09:30;182;302;10;60;192;17
2024-04-19 09:40;183;302;10;60;187;17
2024-04-19 09:50;183;303;10;60;171;18
2024-04-19 10:00;184;304;10;60;170;17
2024-04-19 10:10;185;305;10;60;182;17
2024-04-19 10:20;186;305;11;60;180;18
2024-04-19 10:30;187;306;12;60;170;18
2024-04-19 10:40;188;307;12;61;166;16
2024-04-19 10:50;189;307;12;61;162;16
2024-04-19 11:00;190;308;13;61;171;17
2024-04-19 11:10;193;309;14;61;177;17
2024-04-19 11:20;196;311;14;61;;
2024-04-19 11:30;199;312;14;62;;
2024-04-19 11:40;202;313;15;62;;
2024-04-19 11:50;205;315;16;62;;
2024-04-19 12:00;208;316;16;62;;
2024-04-19 12:10;211;317;17;62;;
2024-04-19 12:20;215;318;17;62;;
2024-04-19 12:30;218;320;18;62;;
2024-04-19 12:40;221;321;19;63;;
2024-04-19 12:50;225;322;19;63;;
2024-04-19 13:00;228;323;20;63;;
2024-04-19 13:10;231;323;21;63;;
2024-04-19 13:20;234;324;21;63;;
2024-04-19 13:30;237;324;22;64;;
2024-04-19 13:40;240;324;23;64;;
2024-04-19 13:50;243;325;23;64;;
2024-04-19 14:00;246;325;24;64;;
2024-04-19 14:10;248;326;25;64;;
2024-04-19 14:20;250;326;26;64;;
2024-04-19 14:30;252;326;26;64;;
2024-04-19 14:40;254;327;27;65;;
2024-04-19 14:50;256;328;28;65;;
2024-04-19 15:00;258;328;29;65;;
2024-04-19 15:10;260;328;30;65;;
2024-04-19 15:20;261;328;32;66;;
2024-04-19 15:30;263;328;33;66;;
2024-04-19 15:40;265;328;34;66;;
2024-04-19 15:50;266;328;36;67;;
2024-04-19 16:00;268;328;37;67;;
2024-04-19 16:10;274;328;39;67;;
2024-04-19 16:20;280;329;41;67;;
2024-04-19 16:30;286;329;42;68;;
2024-04-19 16:40;291;329;44;68;;
2024-04-19 16:50;297;330;46;68;;
2024-04-19 17:00;303;330;48;68;;
2024-04-19 17:10;303;330;50;68;;
2024-04-19 17:20;303;330;52;69;;
2024-04-19 17:30;302;330;54;69;;
2024-04-19 17:40;302;331;57;69;;
2024-04-19 17:50;302;331;59;70;;
2024-04-19 18:00;302;331;61;70;;
2024-04-19 18:10;306;331;64;70;;
2024-04-19 18:20;309;331;67;71;;
2024-04-19 18:30;313;331;70;71;;
2024-04-19 18:40;317;331;74;71;;
2024-04-19 18:50;320;331;77;72;;
2024-04-19 19:00;324;331;80;72;;
2024-04-19 19:10;323;331;82;72;;
2024-04-19 19:20;323;332;84;73;;
2024-04-19 19:30;322;332;86;73;;
2024-04-19 19:40;321;332;88;73;;
2024-04-19 19:50;321;333;90;74;;
2024-04-19 20:00;320;333;92;74;;
2024-04-19 20:10;319;333;94;74;;
2024-04-19 20:20;319;334;96;75;;
2024-04-19 20:30;318;334;98;75;;
2024-04-19 20:40;317;334;100;75;;
2024-04-19 20:50;317;335;102;76;;
2024-04-19 21:00;316;335;104;76;;
2024-04-19 21:10;316;335;106;76;;
2024-04-19 21:20;315;335;108;76;;
2024-04-19 21:30;314;335;110;76;;
2024-04-19 21:40;314;335;112;77;;
2024-04-19 21:50;314;335;114;77;;
2024-04-19 22:00;313;335;116;77;;
2024-04-19 22:10;312;335;118;78;;
2024-04-19 22:20;312;335;120;78;;
2024-04-19 22:30;312;334;122;78;;
2024-04-19 22:40;311;334;125;79;;
2024-04-19 22:50;310;334;127;80;;
2024-04-19 23:00;310;334;129;80;;
2024-04-19 23:10;310;334;131;80;;
2024-04-19 23:20;309;334;132;81;;
2024-04-19 23:30;309;334;134;81;;
2024-04-19 23:40;309;334;136;81;;
2024-04-19 23:50;308;334;137;82;;
2024-04-20 00:00;308;334;139;82;;
2024-04-20 00:10;308;334;140;82;;
2024-04-20 00:20;307;334;141;82;;
2024-04-20 00:30;307;334;142;82;;
2024-04-20 00:40;307;334;142;83;;
2024-04-20 00:50;306;334;143;83;;
2024-04-20 01:00;306;334;144;83;;
2024-04-20 01:10;306;334;144;83;;
2024-04-20 01:20;306;334;145;83;;
2024-04-20 01:30;306;334;146;83;;
2024-04-20 01:40;306;334;146;83;;
2024-04-20 01:50;306;334;146;83;;
2024-04-20 02:00;306;334;147;83;;
2024-04-20 02:10;306;334;147;83;;
2024-04-20 02:20;306;334;147;83;;
2024-04-20 02:30;306;334;147;82;;
2024-04-20 02:40;306;335;147;82;;
2024-04-20 02:50;306;335;147;82;;
2024-04-20 03:00;306;335;147;82;;
2024-04-20 03:10;306;335;147;82;;
2024-04-20 03:20;306;335;146;82;;
2024-04-20 03:30;306;336;146;82;;
2024-04-20 03:40;305;336;146;82;;
2024-04-20 03:50;305;336;145;82;;
2024-04-20 04:00;305;336;145;82;;
2024-04-20 04:10;305;336;144;82;;
2024-04-20 04:20;306;336;144;81;;
2024-04-20 04:30;306;336;144;81;;
2024-04-20 04:40;306;337;143;81;;
2024-04-20 04:50;307;337;142;80;;
2024-04-20 05:00;307;337;142;80;;
2024-04-20 05:10;307;337;142;80;;
2024-04-20 05:20;307;337;141;80;;
2024-04-20 05:30;308;338;140;80;;
2024-04-20 05:40;308;338;140;79;;
2024-04-20 05:50;308;338;140;79;;
2024-04-20 06:00;308;338;139;79;;
2024-04-20 06:10;308;338;139;79;;
2024-04-20 06:20;307;338;138;79;;
2024-04-20 06:30;307;338;138;78;;
2024-04-20 06:40;307;339;138;78;;
2024-04-20 06:50;306;339;137;78;;
2024-04-20 07:00;306;339;137;78;;
2024-04-20 07:10;305;339;137;78;;
2024-04-20 07:20;304;339;136;78;;
2024-04-20 07:30;304;339;136;78;;
2024-04-20 07:40;303;339;136;78;;
2024-04-20 07:50;302;339;135;78;;
2024-04-20 08:00;301;339;135;78;;
2024-04-20 08:10;300;339;135;78;;
2024-04-20 08:20;299;339;135;78;;
2024-04-20 08:30;298;339;134;78;;
2024-04-20 08:40;298;339;134;78;;
2024-04-20 08:50;297;339;134;78;;
2024-04-20 09:00;296;339;134;78;;
2024-04-20 09:10;296;339;134;78;;
2024-04-20 09:20;295;339;134;78;;
2024-04-20 09:30;294;339;134;78;;
2024-04-20 09:40;294;339;133;78;;
2024-04-20 09:50;294;339;133;78;;
2024-04-20 10:00;293;339;133;78;;
2024-04-20 10:10;292;339;133;78;;
2024-04-20 10:20;292;339;133;78;;
2024-04-20 10:30;292;339;133;78;;
2024-04-20 10:40;291;339;133;79;;
2024-04-20 10:50;290;339;133;79;;
2024-04-20 11:00;290;339;133;79;;
2024-04-20 11:10;290;339;133;79;;
2024-04-20 11:20;290;339;134;79;;
2024-04-20 11:30;290;339;134;79;;
2024-04-20 11:40;289;339;134;79;;
2024-04-20 11:50;289;339;135;79;;
2024-04-20 12:00;289;339;135;79;;
2024-04-20 12:10;289;339;136;79;;
2024-04-20 12:20;289;339;136;79;;
2024-04-20 12:30;290;339;136;80;;
2024-04-20 12:40;290;339;137;80;;
2024-04-20 12:50;290;339;138;80;;
2024-04-20 13:00;290;339;138;80;;
2024-04-20 13:10;290;339;139;80;;
2024-04-20 13:20;291;339;140;80;;
2024-04-20 13:30;292;339;141;80;;
2024-04-20 13:40;292;339;142;80;;
2024-04-20 13:50;292;339;143;80;;
2024-04-20 14:00;293;339;144;80;;
2024-04-20 14:10;294;339;145;80;;
2024-04-20 14:20;295;339;146;80;;
2024-04-20 14:30;296;339;146;80;;
2024-04-20 14:40;298;339;147;80;;
2024-04-20 14:50;299;339;148;80;;
2024-04-20 15:00;300;339;149;80;;
2024-04-20 15:10;302;339;150;80;;
2024-04-20 15:20;305;339;150;80;;
2024-04-20 15:30;308;340;151;80;;
2024-04-20 15:40;310;340;152;80;;
2024-04-20 15:50;312;340;152;80;;
2024-04-20 16:00;315;340;153;80;;
2024-04-20 16:10;317;340;154;80;;
2024-04-20 16:20;319;341;154;80;;
2024-04-20 16:30;322;341;155;80;;
2024-04-20 16:40;324;341;156;80;;
2024-04-20 16:50;326;342;156;80;;
2024-04-20 17:00;328;342;157;80;;
2024-04-20 17:10;328;342;157;80;;
2024-04-20 17:20;328;342;157;80;;
2024-04-20 17:30;328;342;158;80;;
2024-04-20 17:40;327;343;158;81;;
2024-04-20 17:50;327;343;158;81;;
2024-04-20 18:00;327;343;158;81;;
2024-04-20 18:10;326;343;158;81;;
2024-04-20 18:20;326;343;157;81;;
2024-04-20 18:30;325;344;157;81;;
2024-04-20 18:40;324;344;157;81;;
2024-04-20 18:50;324;344;156;81;;
2024-04-20 19:00;323;344;156;81;;
2024-04-20 19:10;322;344;156;81;;
2024-04-20 19:20;321;344;155;81;;
2024-04-20 19:30;320;344;154;80;;
2024-04-20 19:40;319;344;154;80;;
2024-04-20 19:50;318;344;154;80;;
2024-04-20 20:00;317;344;153;80;;
2024-04-20 20:10;316;344;152;80;;
2024-04-20 20:20;315;344;152;80;;
2024-04-20 20:30;314;344;151;80;;
2024-04-20 20:40;313;345;150;80;;
2024-04-20 20:50;312;345;150;80;;
2024-04-20 21:00;311;345;149;80;;
2024-04-20 21:10;310;345;148;80;;
2024-04-20 21:20;309;345;148;80;;
2024-04-20 21:30;308;345;148;80;;
2024-04-20 21:40;306;345;147;80;;
2024-04-20 21:50;305;345;146;80;;
2024-04-20 22:00;304;345;146;80;;
2024-04-20 22:10;303;345;146;80;;
2024-04-20 22:20;302;345;145;80;;
2024-04-20 22:30;302;346;144;80;;
2024-04-20 22:40;301;346;144;80;;